Regional Weather Roundup
Issued by NWS Midland/Odessa, TX

Home | Current Version | Previous Version | Text Only | Print | Product List | Glossary On
Versions: 1 2 3 4 5 6 7 8 9 10 11 12 13 14 15 16 17 18 19 20 21 22 23 24 25 26 27 28 29 30 31 32 33 34 35 36 37 38 39 40 41 42 43 44 45 46 47 48 49 50
000
ASUS44 KMAF 070410
RWRMAF
MIDLAND AREA WEATHER ROUNDUP
NATIONAL WEATHER SERVICE MIDLAND TX
1100 PM CDT MON JUL 06 2015

...IN SOUTHWEST TEXAS AND SOUTHEAST NEW MEXICO...

CITY           SKY/WX    TMP DP  RH WIND       PRES   REMARKS
ALPINE         MOCLDY    72  61  68 SW15      30.12S
ANDREWS        FAIR      79  63  57 CALM      29.98R
ARTESIA        CLOUDY    75  66  73 N16       30.08R
BIG SPRING     CLOUDY    82  72  71 SE8       29.97R
CARLSBAD       LGT RAIN  75  70  84 NW17      29.99R
DRYDEN           N/A     77  67  71 SW7       29.95R
FORT STOCKTON  PTCLDY    74  64  71 S10       29.94R
GUAD PASS      CLOUDY    75  58  55 NE18G32   30.11R
HOBBS          CLOUDY    81  61  50 NW8       30.04R
MARFA          MOCLDY   N/A N/A N/A SE6       30.13S
MIDLAND AIRPK  CLOUDY    82  66  57 S12       29.95R
MIDLAND INTL   CLOUDY    82  65  56 S18       29.94R
ODESSA         MOCLDY    81  64  56 S10       29.95R
PECOS          PTCLDY    82  62  50 SE9       29.88R
PRESIDIO       FAIR      82  65  55 MISG      29.96R
SEMINOLE       CLOUDY    79  66  64 SE8       29.99R
SNYDER         CLOUDY    73  70  90 NE10      29.97S
WINK           MOCLDY    81  62  52 SE13      29.90R
$$
...OTHER STATIONS IN TEXAS...

CITY           SKY/WX    TMP DP  RH WIND       PRES   REMARKS
ABILENE        CLOUDY    84  65  52 S15       29.95R
AMARILLO       LGT RAIN  68  64  87 N22G29    30.09R
AUSTIN         CLEAR     78  73  84 S9        29.98R
BROWNSVILLE    CLEAR     82  78  88 S13       29.96R
CORPUS CHRISTI CLOUDY    83  78  85 S18G24    29.96R
DALLAS FTW     MOCLDY    85  69  58 S16       29.95R
DEL RIO        MOCLDY    85  68  56 E10       29.89R
EL PASO        PTCLDY    92  51  24 W15G24    29.96R
HOUSTON INT    MOCLDY    82  75  79 S7        30.03R
LUBBOCK        TSTM      69  69 100 N16       30.03R FOG
SAN ANGELO     CLOUDY    84  65  52 S12       29.93R
SAN ANTONIO    CLOUDY    81  74  79 SE16      29.99R
WACO           CLEAR     82  71  69 S14       29.99R
WICHITA FALLS  NOT AVBL
$$
...OTHER LOCATIONS IN NEW MEXICO...

CITY           SKY/WX    TMP DP  RH WIND       PRES   REMARKS
ALAMAGORDO     CLOUDY    86  50  28 NW14      30.00R
ALBUQUERQUE    CLOUDY    71  58  63 E24G32    30.12R
CANNON AFB     LGT RAIN  66  64  94 NE16      30.12R
CLOVIS         CLOUDY    64  63  94 NE16G22     N/A
HOLLOMAN AFB   MOCLDY    87  52  30 N9        29.97R
ROSWELL        CLOUDY    74  64  71 N9        30.07R
RUIDOSO        CLOUDY    61  57  88 W6        30.31R
SANTA FE       LGT RAIN  64  57  78 S8        30.22R
TRUTH OR CONSE MOCLDY    81  57  43 NW7       30.06R
TUCUMCARI      CLOUDY    66  63  90 NE9       30.15R
$$


USA.gov is the U.S. government's official web portal to all federal, state and local government web resources and services.